Location: Unspecified
(0.0000°N, 0.0000°E)
Time: 12:06:13
(UTC+00:00)

N. Korean satellite - Pass Details

Date: 10 December 2019
Orbit: 455 x 506 km, 97.2° (Epoch: 10 December)

Event Time Altitude Azimuth Distance (km) Brightness Sun altitude
Rises 05:12:14 0° 20° (NNE) 2,469 10.1 -9.3°
Reaches altitude 10° 05:14:19 10° 27° (NNE) 1,593 9.2 -8.8°
Maximum altitude 05:17:36 45° 101° (E) 629 7.7 -8.0°
Drops below altitude 10° 05:20:52 10° 175° (S) 1,593 9.6 -7.3°
Sets 05:22:58 0° 181° (S) 2,469 10.5 -6.8°
